[[{"header":{"parameterUnit":"m.s-1","parameterCategory":1,"la1":30.2991,"la2":30.254,"lo1":-89.0895,"lo2":-89.0444,"dy":0.0017,"dx":0.0017,"nx":28,"ny":28,"refTime":"2025-11-22T03:00:00:Z","depth":0,"parameterNumber":2,"parameterNumberName":"U-component_of_WINDS"},"data":[0,0,0,0,0,0,0,0,0,0,0,0,0,0,0,0,0,0,0,0,0,0,0,0,0,0,0,0,0,0,0,0,0,0,0,0,0,0,0,0,0,0,0,0,0,0,0,0,0,0,0,0,0,0,0,0,0,0,1.6199,1.62,0,1.6264,1.6265,1.6266,1.6256,1.6254,1.6253,1.6252,1.6319,1.6322,1.6325,0,0,0,0,0,0,0,0,0,0,0,0,0,1.6065,1.6068,1.6199,1.62,1.6201,1.6264,1.6265,1.6266,1.6256,1.6254,1.6253,1.6252,1.6318,1.6322,1.6325,0,0,0,0,0,0,0,0,0,0,0,0,0,1.6126,1.6068,1.6199,1.6203,1.6204,1.6264,1.6265,1.6266,1.6256,1.6254,1.6253,1.6251,1.6317,1.6321,1.6326,1.6385,0,0,1.6338,1.634,0,0,0,0,0,0,0,0,1.6123,1.6131,1.6202,1.6203,1.6204,1.625,1.6242,1.6306,1.6256,1.6236,1.6252,1.625,1.6298,1.6303,1.6319,1.6388,1.6391,1.6339,1.6341,1.6343,1.6344,0,0,0,0,0,0,0,1.6118,1.6128,1.6225,1.6203,1.6204,1.6202,1.6208,1.6254,1.6276,1.6238,1.6237,1.6245,1.6298,1.6315,1.6321,1.6392,1.6339,1.6342,1.6345,1.6347,1.6512,1.6513,0,0,0,0,0,0,1.6113,1.6125,1.6223,1.6227,1.6159,1.6205,1.6213,1.6237,1.6275,1.6279,1.6247,1.6245,1.6309,1.6316,1.6323,1.6394,1.6343,1.6347,1.635,1.651,1.6512,1.6514,0,0,0,0,0,0,1.611,1.6122,1.622,1.6176,1.6188,1.621,1.6237,1.6239,1.6257,1.6282,1.6285,1.626,1.6308,1.6317,1.6369,1.6397,1.6349,1.6353,1.6508,1.651,1.6513,1.6538,0,0,0,0,0,0,1.6106,1.6121,1.6144,1.6176,1.619,1.6266,1.6238,1.6242,1.6264,1.6262,1.6295,1.6299,1.6307,1.6363,1.6374,1.6402,1.6356,1.6505,1.6509,1.6512,1.6535,1.6542,1.6547,0,0,0,0,0,1.6102,1.6149,1.6145,1.6157,1.622,1.6268,1.6276,1.6283,1.6266,1.6289,1.6305,1.6298,1.6392,1.6369,1.638,1.641,1.6504,1.6508,1.6512,1.6532,1.654,1.6547,0,0,0,0,0,0,1.6121,1.6154,1.615,1.6209,1.6236,1.6266,1.6296,1.6292,1.6324,1.6321,1.6329,1.6336,1.6389,1.6405,1.6378,1.6469,1.6445,1.6452,1.6457,1.6465,1.647,1.6466,1.636,0,0,0,0,0,1.6131,1.6167,1.6194,1.6244,1.6257,1.6274,1.6295,1.6299,1.6326,1.6338,1.6357,1.6384,1.642,1.6443,1.6477,1.6537,1.6544,1.6563,1.6569,1.6574,1.6579,1.6611,1.662,1.6527,1.6527,1.6527,0,0,1.6155,1.6177,1.62,1.6248,1.6269,1.6306,1.6284,1.6324,1.6351,1.6344,1.6394,1.6409,1.644,1.6496,1.6522,1.6511,1.6606,1.6579,1.6583,1.6586,1.6616,1.6625,1.6632,1.653,1.653,1.6529,0,0,1.6216,1.6237,1.628,1.6301,1.6332,1.6343,1.6353,1.6384,1.6393,1.6444,1.6439,1.6471,1.6532,1.6553,1.6572,1.6639,1.6634,1.665,1.6681,1.6712,1.6719,1.6726,1.6749,1.6757,1.6655,1.6656,1.6656,0,1.6241,1.6296,1.6303,1.6343,1.6364,1.6358,1.6402,1.6422,1.6463,1.6477,1.6464,1.6539,1.656,1.662,1.6636,1.6652,1.6663,1.6646,1.6718,1.6724,1.673,1.6752,1.6761,1.6657,1.6657,1.6657,1.6657,0,1.6325,1.6363,1.6394,1.6433,1.6458,1.65,1.6512,1.6536,1.6536,1.6548,1.6599,1.6622,1.666,1.6675,1.6677,1.6735,1.6727,1.6716,1.6692,1.6741,1.6761,1.677,1.666,1.6659,1.6659,1.6658,0,0,1.6402,1.6442,1.6454,1.6471,1.6504,1.6533,1.6574,1.6611,1.6631,1.6658,1.6692,1.6743,1.6732,1.6754,1.6757,1.6784,1.6834,1.6769,1.677,1.678,1.6899,1.6907,1.6917,1.683,1.6832,1.6833,1.6896,0,1.6466,1.6538,1.6544,1.6608,1.6643,1.6637,1.6672,1.6696,1.6707,1.6738,1.675,1.6786,1.6769,1.6782,1.6808,1.6823,1.6858,1.6818,1.6862,1.6863,1.6854,1.6928,1.6937,1.6995,1.6904,1.6906,1.6907,0,1.6551,1.658,1.6648,1.6675,1.669,1.6721,1.6754,1.6784,1.681,1.6816,1.6839,1.6839,1.688,1.6854,1.691,1.6882,1.69,1.691,1.6912,1.6917,1.6888,1.6934,1.7014,1.7023,1.692,1.6919,1.6918,0,1.6599,1.6656,1.6703,1.6718,1.6751,1.6773,1.6787,1.6812,1.6833,1.6862,1.6875,1.6908,1.6927,1.6952,1.696,1.6941,1.7015,1.6991,1.7021,1.7021,1.7037,1.7036,1.7121,1.7049,1.7049,1.7049,1.7049,0,1.667,1.6712,1.6725,1.6755,1.68,1.6806,1.6851,1.6864,1.6886,1.6917,1.6914,1.6943,1.6952,1.6982,1.6989,1.7033,1.7042,1.7047,1.7049,1.7048,1.7047,1.706,1.7056,1.7051,1.7051,1.705,1.705,0,1.6733,1.6743,1.6795,1.682,1.6828,1.686,1.6882,1.691,1.692,1.6959,1.6969,1.6985,1.702,1.703,1.7073,1.7077,1.7129,1.7127,1.7121,1.7121,1.715,1.7147,1.7246,1.7259,1.7179,1.718,1.718,0,1.6778,1.6809,1.6838,1.6858,1.6873,1.6907,1.6928,1.6934,1.6956,1.6987,1.701,1.7045,1.7074,1.713,1.7145,1.7178,1.7176,1.7208,1.7181,1.7178,1.7176,1.7174,1.7176,1.7214,1.7215,1.7215,1.7216,0,1.6856,1.6859,1.6889,1.6921,1.6946,1.6971,1.6996,1.7013,1.7022,1.7047,1.7082,1.7104,1.7147,1.7181,1.7214,1.7228,1.7223,1.7224,1.7233,1.7232,1.7227,1.7229,1.7134,1.7222,1.7221,1.7221,1.7221,1.722,1.6911,1.6938,1.6962,1.6995,1.7014,1.7036,1.7063,1.7075,1.7105,1.7141,1.7142,1.7181,1.7204,1.7247,1.7263,1.7293,1.7283,1.7296,1.7299,1.7302,1.7304,1.7222,1.7299,1.7298,1.7298,1.7298,1.7298,0,1.6988,1.7003,1.7033,1.7067,1.7093,1.7085,1.7111,1.7133,1.7167,1.7189,1.7217,1.7257,1.729,1.7306,1.7339,1.7359,1.7358,1.7367,1.7366,1.7369,1.7311,1.73,1.7368,1.7368,1.7368,1.7368,1.7368,1.7368,1.7032,1.7077,1.7082,1.7136,1.715,1.7188,1.7203,1.7223,1.7241,1.7286,1.7313,1.7323,1.7343,1.7376,1.7405,1.7409,1.7421,1.7432,1.7434,1.738,1.7373,1.7367,1.7356,1.7434,1.7434,1.749,1.749,1.749]},{"header":{"parameterUnit":"m.s-1","parameterCategory":1,"la1":30.2991,"la2":30.254,"lo1":-89.0895,"lo2":-89.0444,"dy":0.0017,"dx":0.0017,"nx":28,"ny":28,"refTime":"2025-11-22T03:00:00:Z","depth":0,"parameterNumber":3,"parameterNumberName":"V-component_of_WINDS"},"data":[0,0,0,0,0,0,0,0,0,0,0,0,0,0,0,0,0,0,0,0,0,0,0,0,0,0,0,0,0,0,0,0,0,0,0,0,0,0,0,0,0,0,0,0,0,0,0,0,0,0,0,0,0,0,0,0,0,0,1.1546,1.1546,0,1.156,1.1561,1.1561,1.1561,1.156,1.156,1.156,1.1574,1.1574,1.1575,0,0,0,0,0,0,0,0,0,0,0,0,0,1.1517,1.1518,1.1546,1.1546,1.1547,1.156,1.1561,1.1561,1.1561,1.156,1.156,1.156,1.1574,1.1574,1.1575,0,0,0,0,0,0,0,0,0,0,0,0,0,1.153,1.1518,1.1546,1.1548,1.1548,1.156,1.1561,1.1561,1.1561,1.156,1.156,1.156,1.1573,1.1574,1.1575,1.1586,0,0,1.1578,1.1578,0,0,0,0,0,0,0,0,1.153,1.1531,1.1548,1.1548,1.1548,1.1559,1.1555,1.1569,1.1561,1.1556,1.156,1.156,1.1569,1.157,1.1573,1.1586,1.1587,1.1578,1.1578,1.1578,1.1579,0,0,0,0,0,0,0,1.1529,1.1531,1.1552,1.1548,1.1548,1.1548,1.1549,1.1558,1.1564,1.1556,1.1556,1.1558,1.1569,1.1573,1.1574,1.1587,1.1578,1.1578,1.1579,1.1579,1.1608,1.1609,0,0,0,0,0,0,1.1528,1.153,1.1551,1.1552,1.1538,1.1549,1.155,1.1556,1.1564,1.1565,1.1558,1.1558,1.1571,1.1573,1.1574,1.1587,1.1578,1.1579,1.158,1.1608,1.1609,1.1609,0,0,0,0,0,0,1.1527,1.153,1.1551,1.1541,1.1544,1.1549,1.1555,1.1556,1.156,1.1565,1.1566,1.1561,1.1571,1.1573,1.1583,1.1587,1.158,1.158,1.1608,1.1608,1.1609,1.1612,0,0,0,0,0,0,1.1526,1.1529,1.1534,1.1541,1.1544,1.156,1.1556,1.1556,1.1561,1.1561,1.1568,1.1569,1.1571,1.1581,1.1583,1.1588,1.1581,1.1607,1.1608,1.1609,1.1612,1.1613,1.1613,0,0,0,0,0,1.1525,1.1534,1.1534,1.1537,1.155,1.156,1.1562,1.1564,1.1561,1.1566,1.1569,1.1569,1.1586,1.1582,1.1585,1.159,1.1607,1.1608,1.1609,1.1611,1.1612,1.1613,0,0,0,0,0,0,1.1527,1.1535,1.1535,1.1547,1.1553,1.156,1.1565,1.1565,1.1572,1.1571,1.1574,1.1575,1.1585,1.1588,1.1584,1.16,1.1596,1.1597,1.1598,1.1599,1.16,1.1599,1.1582,0,0,0,0,0,1.1529,1.1537,1.1543,1.1553,1.1556,1.156,1.1564,1.1566,1.1572,1.1574,1.1578,1.1584,1.159,1.1595,1.1601,1.1612,1.1613,1.1616,1.1617,1.1618,1.1619,1.1624,1.1625,1.1611,1.1611,1.1611,0,0,1.1533,1.1538,1.1543,1.1553,1.1558,1.1565,1.1562,1.157,1.1575,1.1575,1.1584,1.1588,1.1594,1.1604,1.1608,1.1607,1.1623,1.1619,1.1619,1.162,1.1625,1.1626,1.1627,1.1611,1.1611,1.1611,0,0,1.1544,1.1549,1.1557,1.1562,1.1568,1.1571,1.1573,1.158,1.1582,1.1591,1.1591,1.1597,1.1609,1.1613,1.1616,1.1628,1.1627,1.1629,1.1634,1.1639,1.164,1.1641,1.1645,1.1646,1.163,1.163,1.163,0,1.1548,1.1559,1.1561,1.1569,1.1573,1.1573,1.1582,1.1586,1.1594,1.1597,1.1595,1.1609,1.1613,1.1624,1.1626,1.1629,1.1631,1.1629,1.164,1.1641,1.1642,1.1646,1.1647,1.1631,1.1631,1.1631,1.1631,0,1.1563,1.1571,1.1577,1.1585,1.159,1.1598,1.1601,1.1605,1.1606,1.1608,1.1617,1.1622,1.1629,1.1632,1.1633,1.1643,1.1641,1.164,1.1636,1.1644,1.1647,1.1648,1.1631,1.1631,1.1631,1.1631,0,0,1.1576,1.1585,1.1587,1.1591,1.1598,1.1603,1.1611,1.1618,1.1621,1.1627,1.1633,1.1642,1.164,1.1645,1.1646,1.165,1.1658,1.1648,1.1648,1.1649,1.1668,1.1669,1.1671,1.1657,1.1658,1.1658,1.1668,0,1.1588,1.1601,1.1603,1.1615,1.1622,1.1621,1.1628,1.1632,1.1635,1.164,1.1643,1.1649,1.1647,1.1649,1.1653,1.1656,1.1662,1.1655,1.1663,1.1663,1.1661,1.1673,1.1674,1.1683,1.1669,1.1669,1.1669,0,1.1603,1.1609,1.1621,1.1627,1.1629,1.1635,1.1641,1.1647,1.1652,1.1653,1.1657,1.1657,1.1664,1.166,1.167,1.1665,1.1668,1.167,1.167,1.1671,1.1667,1.1673,1.1686,1.1687,1.1671,1.1671,1.1671,0,1.1611,1.1622,1.1631,1.1633,1.164,1.1644,1.1647,1.1651,1.1655,1.166,1.1662,1.1668,1.1672,1.1676,1.1677,1.1674,1.1686,1.1683,1.1687,1.1687,1.169,1.169,1.1703,1.1692,1.1692,1.1692,1.1692,0,1.1623,1.1631,1.1634,1.1639,1.1647,1.1649,1.1657,1.166,1.1663,1.1669,1.1669,1.1674,1.1676,1.1681,1.1682,1.1689,1.169,1.1691,1.1692,1.1691,1.1691,1.1693,1.1693,1.1692,1.1692,1.1692,1.1692,0,1.1634,1.1636,1.1646,1.1651,1.1652,1.1658,1.1662,1.1667,1.1669,1.1675,1.1677,1.168,1.1686,1.1688,1.1695,1.1696,1.1704,1.1704,1.1703,1.1703,1.1707,1.1706,1.1722,1.1724,1.1712,1.1712,1.1712,0,1.1642,1.1647,1.1653,1.1657,1.1659,1.1665,1.1669,1.1671,1.1674,1.168,1.1684,1.169,1.1694,1.1704,1.1706,1.1711,1.1711,1.1716,1.1712,1.1711,1.1711,1.171,1.1711,1.1717,1.1717,1.1717,1.1717,0,1.1655,1.1656,1.1661,1.1667,1.1671,1.1676,1.168,1.1683,1.1685,1.1689,1.1695,1.1699,1.1706,1.1711,1.1717,1.1719,1.1718,1.1718,1.172,1.172,1.1718,1.1719,1.1705,1.1718,1.1718,1.1718,1.1718,1.1718,1.1664,1.1669,1.1673,1.1679,1.1683,1.1686,1.1691,1.1693,1.1698,1.1704,1.1705,1.1711,1.1715,1.1722,1.1724,1.1729,1.1727,1.1729,1.173,1.173,1.173,1.1718,1.173,1.173,1.173,1.173,1.173,0,1.1678,1.168,1.1685,1.1691,1.1696,1.1694,1.1699,1.1703,1.1708,1.1712,1.1716,1.1723,1.1728,1.1731,1.1736,1.1739,1.1738,1.174,1.174,1.174,1.1732,1.173,1.174,1.174,1.174,1.174,1.174,1.174,1.1685,1.1693,1.1694,1.1703,1.1705,1.1711,1.1714,1.1717,1.172,1.1727,1.1731,1.1733,1.1736,1.1741,1.1746,1.1746,1.1748,1.175,1.175,1.1742,1.1741,1.174,1.1738,1.175,1.175,1.1758,1.1758,1.1758]}]]